Toccoa Rg Letourneau Field, T, GA

5:25 AM EDT on October 19, 2017 (GMT -0400)
Toccoa-Letourneau

Weather History for KTOC - April, 2014

Change the Weather History Date:

Friday, April 11, 2014

  Actual Average Record
Temperature  
Mean Temperature 62 °F -  
Max Temperature 77 °F 73 °F 84 °F (2017)
Min Temperature 47 °F 46 °F 41 °F (2016)
Degree Days  
Heating Degree Days 3    
Growing Degree Days 12 (Base 50)    
Moisture  
Dew Point 41 °F    
Average Humidity 49    
Maximum Humidity 86    
Minimum Humidity 22    
Precipitation  
Precipitation 0.00 in - - ()
Sea Level Pressure  
Sea Level Pressure 30.18 in    
Wind  
Wind Speed 5 mph (SW)    
Max Wind Speed 16 mph    
Max Gust Speed 22 mph    
Visibility 10 miles    
Events      
Averages and records for this station are not official NWS values.
T = Trace of Precipitation, MM = Missing Value Source: NWS Daily Summary

Daily Weather History Graph

Daily Weather History Graph

Search for Another Location

Airport or City:

Trip Planner

Search our weather history database for the weather conditions in past years. The results will help you decide how hot, cold, wet, or windy it might be!

Date:

Astronomy

Apr. 11, 2014 Rise Set
Actual Time 7:06 AM EDT 8:02 PM EDT
Civil Twilight 6:41 AM EDT 8:27 PM EDT
Nautical Twilight 6:10 AM EDT 8:58 PM EDT
Astronomical Twilight 5:39 AM EDT 9:29 PM EDT
Moon 4:49 PM EDT (4/11) 4:52 AM EDT (4/11)
Length of Visible Light 13h 46m
Length of Day
12h 55m
Waxing Gibbous, 87% of the Moon is Illuminated
Apr 11
Waxing Gibbous
Apr 15
Full
Apr 22
Last Quarter
Apr 29
New
May 6
First Quarter

Hourly Weather History & Observations

Time (EDT) Temp. Dew Point Humidity Pressure Visibility Wind Dir Wind Speed Gust Speed Precip Events Conditions
12:15 AM 57.7 °F 40.3 °F 52% 30.21 in 10.0 mi SW 4.6 mph - N/A   Clear
12:35 AM 56.8 °F 41.4 °F 56% 30.21 in 10.0 mi Calm Calm - N/A   Clear
12:55 AM 55.9 °F 42.3 °F 60% 30.21 in 10.0 mi SW 3.5 mph - N/A   Clear
1:15 AM 55.0 °F 41.4 °F 60% 30.21 in 10.0 mi Calm Calm - N/A   Clear
1:35 AM 55.4 °F 41.4 °F 59% 30.21 in 10.0 mi SW 4.6 mph - N/A   Clear
1:55 AM 55.0 °F 41.9 °F 61% 30.21 in 10.0 mi SW 3.5 mph - N/A   Clear
2:15 AM 53.4 °F 42.8 °F 67% 30.21 in 10.0 mi Calm Calm - N/A   Clear
2:35 AM 50.9 °F 42.4 °F 73% 30.20 in 10.0 mi Calm Calm - N/A   Clear
2:55 AM 51.4 °F 42.4 °F 71% 30.20 in 10.0 mi Calm Calm - N/A   Clear
3:15 AM 50.0 °F 43.0 °F 77% 30.19 in 10.0 mi WSW 3.5 mph - N/A   Clear
3:35 AM 50.9 °F 43.7 °F 76% 30.19 in 10.0 mi Calm Calm - N/A   Clear
3:55 AM 50.4 °F 42.3 °F 74% 30.20 in 10.0 mi Calm Calm - N/A   Clear
4:15 AM 48.7 °F 42.8 °F 80% 30.19 in 10.0 mi Calm Calm - N/A   Clear
4:35 AM 47.8 °F 43.2 °F 84% 30.19 in 10.0 mi SW 4.6 mph - N/A   Clear
4:55 AM 47.5 °F 43.3 °F 86% 30.19 in 10.0 mi SW 3.5 mph - N/A   Clear
5:15 AM 47.8 °F 43.0 °F 83% 30.19 in 10.0 mi SW 3.5 mph - N/A   Clear
5:35 AM 48.6 °F 43.0 °F 81% 30.19 in 10.0 mi SW 3.5 mph - N/A   Clear
5:55 AM 47.8 °F 43.0 °F 83% 30.20 in 10.0 mi SW 3.5 mph - N/A   Clear
6:15 AM 49.6 °F 42.6 °F 77% 30.21 in 10.0 mi SW 5.8 mph - N/A   Clear
6:35 AM 50.4 °F 42.8 °F 75% 30.21 in 10.0 mi SW 6.9 mph - N/A   Clear
6:55 AM 50.9 °F 42.6 °F 73% 30.22 in 10.0 mi SW 5.8 mph - N/A   Clear
7:15 AM 50.9 °F 42.1 °F 72% 30.22 in 10.0 mi WSW 4.6 mph - N/A   Clear
7:35 AM 50.9 °F 42.1 °F 72% 30.23 in 10.0 mi SW 3.5 mph - N/A   Clear
7:55 AM 50.2 °F 44.1 °F 79% 30.24 in 10.0 mi WSW 3.5 mph - N/A   Clear
8:15 AM 55.4 °F 45.5 °F 69% 30.24 in 10.0 mi West 3.5 mph - N/A   Clear
8:35 AM 59.0 °F 46.4 °F 63% 30.24 in 10.0 mi Calm Calm - N/A   Clear
8:55 AM 61.2 °F 43.7 °F 53% 30.24 in 10.0 mi Calm Calm - N/A   Clear
9:15 AM 63.5 °F 44.2 °F 49% 30.25 in 10.0 mi Calm Calm - N/A   Clear
9:35 AM 64.8 °F 43.9 °F 47% 30.25 in 10.0 mi West 4.6 mph - N/A   Clear
10:15 AM 67.3 °F 44.6 °F 44% 30.24 in 10.0 mi North 3.5 mph - N/A   Clear
10:35 AM 68.2 °F 45.7 °F 44% 30.25 in 10.0 mi WSW 5.8 mph - N/A   Clear
10:55 AM 70.2 °F 43.2 °F 38% 30.24 in 10.0 mi WSW 5.8 mph - N/A   Clear
11:15 AM 70.9 °F 42.8 °F 36% 30.24 in 10.0 mi Calm Calm - N/A   Clear
11:35 AM 71.4 °F 42.8 °F 36% 30.23 in 10.0 mi SSW 5.8 mph - N/A   Clear
11:55 AM 71.8 °F 36.5 °F 28% 30.23 in 10.0 mi SW 10.4 mph - N/A   Clear
12:15 PM 73.4 °F 34.9 °F 24% 30.22 in 10.0 mi SW 11.5 mph 18.4 mph N/A   Clear
12:35 PM 74.1 °F 36.1 °F 25% 30.21 in 10.0 mi WSW 10.4 mph 17.3 mph N/A   Clear
12:55 PM 73.6 °F 37.4 °F 27% 30.21 in 10.0 mi WSW 15.0 mph 18.4 mph N/A   Clear
1:15 PM 73.8 °F 38.8 °F 28% 30.20 in 10.0 mi SW 10.4 mph 18.4 mph N/A   Clear
1:35 PM 74.5 °F 37.6 °F 26% 30.20 in 10.0 mi WSW 13.8 mph - N/A   Clear
1:55 PM 73.9 °F 38.3 °F 27% 30.19 in 10.0 mi SW 13.8 mph 19.6 mph N/A   Clear
2:15 PM 73.9 °F 38.8 °F 28% 30.18 in 10.0 mi WSW 12.7 mph 16.1 mph N/A   Clear
2:35 PM 76.3 °F 39.6 °F 27% 30.17 in 10.0 mi SSW 13.8 mph 19.6 mph N/A   Clear
2:55 PM 75.0 °F 39.2 °F 27% 30.16 in 10.0 mi SW 9.2 mph 17.3 mph N/A   Clear
3:15 PM 75.6 °F 40.1 °F 28% 30.16 in 10.0 mi SW 10.4 mph 18.4 mph N/A   Clear
3:55 PM 76.1 °F 39.6 °F 27% 30.13 in 10.0 mi SW 11.5 mph 21.9 mph N/A   Clear
4:15 PM 76.6 °F 38.1 °F 25% 30.13 in 10.0 mi SW 10.4 mph 18.4 mph N/A   Clear
4:35 PM 77.0 °F 35.8 °F 22% 30.12 in 10.0 mi SW 16.1 mph 20.7 mph N/A   Clear
4:55 PM 76.1 °F 36.9 °F 24% 30.11 in 10.0 mi SW 13.8 mph 18.4 mph N/A   Clear
5:15 PM 76.1 °F 36.5 °F 24% 30.11 in 10.0 mi SW 12.7 mph 20.7 mph N/A   Clear
5:35 PM 76.5 °F 35.6 °F 23% 30.12 in 10.0 mi SW 15.0 mph 20.7 mph N/A   Clear
5:55 PM 76.5 °F 36.0 °F 23% 30.11 in 10.0 mi SW 15.0 mph 21.9 mph N/A   Clear
6:15 PM 75.6 °F 35.4 °F 23% 30.11 in 10.0 mi WSW 12.7 mph 20.7 mph N/A   Clear
6:35 PM 75.2 °F 36.9 °F 25% 30.11 in 10.0 mi WSW 15.0 mph - N/A   Clear
6:55 PM 73.9 °F 37.2 °F 26% 30.12 in 10.0 mi WSW 11.5 mph - N/A   Clear
7:15 PM 73.0 °F 38.3 °F 28% 30.12 in 10.0 mi SW 8.1 mph - N/A   Clear
7:35 PM 71.8 °F 39.4 °F 31% 30.12 in 10.0 mi SW 5.8 mph - N/A   Clear
7:55 PM 70.0 °F 39.2 °F 33% 30.12 in 10.0 mi SW 6.9 mph - N/A   Clear
8:15 PM 68.0 °F 40.6 °F 37% 30.13 in 10.0 mi SW 4.6 mph - N/A   Clear
8:35 PM 65.8 °F 41.4 °F 41% 30.14 in 10.0 mi Calm Calm - N/A   Clear
8:55 PM 64.9 °F 41.7 °F 43% 30.14 in 10.0 mi WSW 3.5 mph - N/A   Clear
9:15 PM 61.5 °F 43.5 °F 52% 30.15 in 10.0 mi SW 5.8 mph - N/A   Clear
9:35 PM 61.9 °F 43.2 °F 50% 30.15 in 10.0 mi WSW 6.9 mph - N/A   Clear
9:55 PM 63.9 °F 42.8 °F 46% 30.16 in 10.0 mi WSW 4.6 mph - N/A   Clear
10:15 PM 61.9 °F 43.2 °F 50% 30.16 in 10.0 mi SW 3.5 mph - N/A   Clear
10:35 PM 60.8 °F 44.6 °F 55% 30.16 in 10.0 mi WSW 6.9 mph - N/A   Clear
10:55 PM 64.4 °F 43.2 °F 46% 30.17 in 10.0 mi WSW 5.8 mph - N/A   Clear
11:15 PM 63.3 °F 43.7 °F 49% 30.17 in 10.0 mi WSW 4.6 mph - N/A   Clear
11:35 PM 61.2 °F 44.2 °F 54% 30.19 in 10.0 mi North 3.5 mph - N/A   Clear
11:55 PM 60.8 °F 43.7 °F 53% 30.19 in 10.0 mi NW 3.5 mph - N/A   Clear